| time (UTC) | temp F | wind direction | speed MPH | gust MPH | rain 1hr in | rain 24hr in | rain mn in | humidity % | barometer mb |
| 20260905170031 | 72 | 41 | 0.0 | 1.0 | 0.00 | 0.00 | 0.00 | 69 | 1013.2 |
| 20260905164527 | 72 | 86 | 0.0 | 1.0 | 0.00 | 0.00 | 0.00 | 72 | 1013.3 |
| 20260905163026 | 71 | 23 | 0.0 | 0.0 | 0.00 | 0.00 | 0.00 | 70 | 1013.3 |
| 20260905161525 | 71 | 283 | 0.0 | 0.0 | 0.00 | 0.00 | 0.00 | 73 | 1013.4 |
| 20260905160040 | 70 | 71 | 0.0 | 0.0 | 0.00 | 0.00 | 0.00 | 76 | 1013.4 |
| 20260905154521 | 70 | 59 | 0.0 | 0.0 | 0.00 | 0.00 | 0.00 | 79 | 1013.6 |
| 20260905153019 | 70 | 31 | 0.0 | 0.0 | 0.00 | 0.00 | 0.00 | 79 | 1013.7 |
| 20260905151519 | 69 | 333 | 0.0 | 0.0 | 0.00 | 0.00 | 0.00 | 78 | 1013.5 |
| 20260905150025 | 69 | 343 | 0.0 | 0.0 | 0.00 | 0.00 | 0.00 | 81 | 1013.5 |
| 20260905144537 | 69 | 292 | 0.0 | 0.0 | 0.00 | 0.00 | 0.00 | 81 | 1013.5 |
| 20260905143022 | 69 | 36 | 0.0 | 0.0 | 0.00 | 0.00 | 0.00 | 82 | 1013.3 |
| 20260905141525 | 68 | 32 | 0.0 | 0.0 | 0.00 | 0.00 | 0.00 | 80 | 1013.5 |
| 20260905140015 | 69 | 32 | 0.0 | 0.0 | 0.00 | 0.00 | 0.00 | 82 | 1013.5 |
| 20260905134517 | 69 | 289 | 0.0 | 0.0 | 0.00 | 0.00 | 0.00 | 82 | 1013.5 |
| 20260905133010 | 68 | 64 | 0.0 | 1.0 | 0.00 | 0.00 | 0.00 | 83 | 1013.5 |
| 20260905131508 | 68 | 269 | 0.0 | 0.0 | 0.00 | 0.00 | 0.00 | 85 | 1013.4 |
| 20260905130007 | 67 | 358 | 0.0 | 1.0 | 0.00 | 0.00 | 0.00 | 88 | 1013.6 |
| 20260905124504 | 66 | 358 | 0.0 | 0.0 | 0.00 | 0.00 | 0.00 | 93 | 1013.7 |
| 20260905123002 | 64 | 333 | 0.0 | 0.0 | 0.00 | 0.00 | 0.00 | 97 | 1013.6 |
| 20260905121501 | 63 | 127 | 0.0 | 0.0 | 0.00 | 0.00 | 0.00 | 98 | 1013.5 |
| 20260905120100 | 61 | 47 | 0.0 | 0.0 | 0.00 | 0.00 | 0.00 | 98 | 1013.3 |
| 20260905114628 | 61 | 47 | 0.0 | 0.0 | 0.00 | 0.00 | 0.00 | 98 | 1013.3 |
| 20260905113059 | 60 | 47 | 0.0 | 0.0 | 0.00 | 0.00 | 0.00 | 98 | 1013.0 |
| 20260905111557 | 59 | 47 | 0.0 | 0.0 | 0.00 | 0.00 | 0.00 | 97 | 1013.2 |
| 20260905110056 | 58 | 47 | 0.0 | 0.0 | 0.00 | 0.00 | 0.00 | 97 | 1013.2 |
| 20260905104554 | 58 | 47 | 0.0 | 0.0 | 0.00 | 0.00 | 0.00 | 97 | 1013.0 |
| 20260905103053 | 58 | 47 | 0.0 | 0.0 | 0.00 | 0.00 | 0.00 | 97 | 1012.6 |
| 20260905101552 | 59 | 47 | 0.0 | 0.0 | 0.00 | 0.00 | 0.00 | 97 | 1012.4 |
| 20260905100110 | 59 | 39 | 0.0 | 0.0 | 0.00 | 0.00 | 0.00 | 97 | 1012.5 |
| 20260905094603 | 59 | 39 | 0.0 | 0.0 | 0.00 | 0.00 | 0.00 | 97 | 1012.5 |
| 20260905093049 | 59 | 39 | 0.0 | 0.0 | 0.00 | 0.00 | 0.00 | 96 | 1012.4 |
| 20260905091558 | 59 | 39 | 0.0 | 0.0 | 0.00 | 0.00 | 0.00 | 96 | 1012.2 |
| 20260905090049 | 59 | 39 | 0.0 | 0.0 | 0.00 | 0.00 | 0.00 | 96 | 1012.1 |
| 20260905084545 | 60 | 39 | 0.0 | 0.0 | 0.00 | 0.00 | 0.00 | 96 | 1012.0 |
| 20260905083043 | 60 | 39 | 0.0 | 0.0 | 0.00 | 0.00 | 0.00 | 95 | 1012.2 |
| 20260905081542 | 60 | 39 | 0.0 | 0.0 | 0.00 | 0.00 | 0.00 | 95 | 1012.2 |
| 20260905080041 | 61 | 39 | 0.0 | 0.0 | 0.00 | 0.00 | 0.00 | 95 | 1012.4 |
| 20260905074551 | 61 | 39 | 0.0 | 0.0 | 0.00 | 0.00 | 0.00 | 95 | 1012.5 |
| 20260905073056 | 61 | 39 | 0.0 | 0.0 | 0.00 | 0.00 | 0.00 | 94 | 1012.4 |
| 20260905071534 | 62 | 39 | 0.0 | 0.0 | 0.00 | 0.00 | 0.00 | 94 | 1012.5 |
| 20260905070032 | 62 | 39 | 0.0 | 0.0 | 0.00 | 0.00 | 0.00 | 93 | 1012.6 |
| 20260905064529 | 63 | 39 | 0.0 | 0.0 | 0.00 | 0.00 | 0.00 | 93 | 1012.6 |
| 20260905063028 | 63 | 39 | 0.0 | 0.0 | 0.00 | 0.00 | 0.00 | 93 | 1012.7 |
| 20260905061524 | 64 | 39 | 0.0 | 0.0 | 0.00 | 0.00 | 0.00 | 93 | 1012.9 |
| 20260905060024 | 64 | 39 | 0.0 | 0.0 | 0.00 | 0.00 | 0.00 | 92 | 1012.9 |
| 20260905054522 | 64 | 39 | 0.0 | 0.0 | 0.00 | 0.00 | 0.00 | 92 | 1012.9 |
| 20260905053023 | 65 | 39 | 0.0 | 0.0 | 0.00 | 0.00 | 0.00 | 92 | 1012.9 |
| 20260905051518 | 65 | 39 | 0.0 | 0.0 | 0.00 | 0.00 | 0.00 | 92 | 1012.8 |
| 20260905050018 | 65 | 39 | 0.0 | 0.0 | 0.00 | 0.00 | 0.00 | 91 | 1012.8 |
| 20260905044512 | 66 | 39 | 0.0 | 0.0 | 0.00 | 0.00 | 0.00 | 90 | 1012.9 |
| 20260905043011 | 66 | 42 | 0.0 | 0.0 | 0.00 | 0.00 | 0.00 | 89 | 1012.9 |
| 20260905041511 | 66 | 43 | 0.0 | 0.0 | 0.00 | 0.00 | 0.00 | 89 | 1013.0 |
| 20260905040016 | 66 | 43 | 0.0 | 0.0 | 0.00 | 0.00 | 0.00 | 88 | 1012.8 |
| 20260905034509 | 66 | 43 | 0.0 | 0.0 | 0.00 | 0.00 | 0.00 | 89 | 1012.8 |
| 20260905033022 | 66 | 43 | 0.0 | 0.0 | 0.00 | 0.00 | 0.00 | 88 | 1012.9 |
| 20260905031507 | 66 | 43 | 0.0 | 0.0 | 0.00 | 0.00 | 0.00 | 86 | 1012.8 |
| 20260905030008 | 67 | 43 | 0.0 | 0.0 | 0.00 | 0.00 | 0.00 | 84 | 1012.7 |
| 20260905024506 | 68 | 42 | 0.0 | 0.0 | 0.00 | 0.00 | 0.00 | 82 | 1012.6 |
| 20260905023018 | 67 | 37 | 0.0 | 0.0 | 0.00 | 0.00 | 0.00 | 83 | 1012.8 |
| 20260905021506 | 67 | 60 | 0.0 | 0.0 | 0.00 | 0.00 | 0.00 | 83 | 1012.8 |
| 20260905020008 | 68 | 239 | 0.0 | 0.0 | 0.00 | 0.00 | 0.00 | 82 | 1012.9 |
| 20260905014502 | 68 | 174 | 0.0 | 0.0 | 0.00 | 0.19 | 0.00 | 82 | 1012.9 |
| 20260905013003 | 69 | 174 | 0.0 | 0.0 | 0.00 | 0.19 | 0.00 | 79 | 1012.9 |
| 20260905011502 | 69 | 65 | 0.0 | 0.0 | 0.00 | 0.19 | 0.00 | 78 | 1012.8 |
| 20260905010001 | 70 | 290 | 0.0 | 0.0 | 0.00 | 0.61 | 0.00 | 77 | 1012.9 |
| 20260905004601 | 71 | 319 | 0.0 | 0.0 | 0.00 | 0.61 | 0.00 | 75 | 1012.8 |
| 20260905003100 | 71 | 318 | 0.0 | 0.0 | 0.00 | 0.61 | 0.00 | 73 | 1012.8 |
| 20260905001608 | 71 | 337 | 0.0 | 0.0 | 0.00 | 0.61 | 0.00 | 74 | 1012.8 |
| 20260905000116 | 71 | 344 | 0.0 | 0.0 | 0.00 | 0.61 | 0.00 | 72 | 1012.6 |
| 20260904234558 | 72 | 352 | 0.0 | 0.0 | 0.00 | 0.61 | 0.00 | 72 | 1012.4 |
| 20260904233058 | 72 | 285 | 0.0 | 0.0 | 0.00 | 0.61 | 0.00 | 70 | 1012.3 |
| 20260904231601 | 73 | 283 | 0.0 | 0.0 | 0.00 | 0.61 | 0.00 | 71 | 1012.4 |
| 20260904230056 | 73 | 25 | 0.0 | 0.0 | 0.00 | 0.61 | 0.00 | 69 | 1012.2 |
| 20260904224602 | 74 | 300 | 0.0 | 0.0 | 0.00 | 0.61 | 0.00 | 65 | 1011.9 |
| 20260904223057 | 74 | 39 | 0.0 | 0.0 | 0.00 | 0.61 | 0.00 | 64 | 1012.0 |
| 20260904221554 | 74 | 32 | 0.0 | 0.0 | 0.00 | 0.61 | 0.00 | 64 | 1011.8 |
| 20260904220111 | 75 | 323 | 0.0 | 0.0 | 0.00 | 0.61 | 0.00 | 61 | 1011.8 |
| 20260904214553 | 74 | 337 | 0.0 | 0.0 | 0.00 | 0.61 | 0.00 | 61 | 1011.9 |
| 20260904213051 | 74 | 4 | 0.0 | 0.0 | 0.00 | 0.61 | 0.00 | 67 | 1012.0 |
| 20260904211557 | 75 | 8 | 0.0 | 0.0 | 0.00 | 0.61 | 0.00 | 70 | 1012.1 |
| 20260904210101 | 75 | 5 | 0.0 | 0.0 | 0.00 | 0.61 | 0.00 | 68 | 1012.1 |
| 20260904204551 | 75 | 356 | 0.0 | 0.0 | 0.00 | 0.64 | 0.00 | 65 | 1012.2 |
| 20260904203049 | 75 | 37 | 0.0 | 0.0 | 0.00 | 0.64 | 0.00 | 68 | 1012.2 |
| 20260904201548 | 76 | 44 | 0.0 | 0.0 | 0.00 | 0.64 | 0.00 | 68 | 1012.3 |
| 20260904200048 | 76 | 303 | 0.0 | 0.0 | 0.00 | 0.64 | 0.00 | 67 | 1012.5 |
| 20260904194554 | 76 | 274 | 0.0 | 0.0 | 0.00 | 0.64 | 0.00 | 69 | 1012.7 |
| 20260904193047 | 78 | 9 | 0.0 | 0.0 | 0.00 | 0.64 | 0.00 | 64 | 1012.8 |
| 20260904191549 | 79 | 96 | 0.0 | 0.0 | 0.00 | 0.64 | 0.00 | 63 | 1012.8 |
| 20260904190044 | 78 | 329 | 0.0 | 1.0 | 0.00 | 0.64 | 0.00 | 62 | 1013.0 |
| 20260904184547 | 78 | 219 | 0.0 | 0.0 | 0.00 | 0.64 | 0.00 | 60 | 1013.1 |
| 20260904183042 | 78 | 328 | 0.0 | 0.0 | 0.00 | 0.64 | 0.00 | 58 | 1013.2 |
| 20260904181544 | 76 | 137 | 0.0 | 1.0 | 0.00 | 0.64 | 0.00 | 61 | 1013.2 |
| 20260904180038 | 76 | 309 | 0.0 | 0.0 | 0.00 | 0.64 | 0.00 | 64 | 1013.5 |
| 20260904174559 | 76 | 12 | 0.0 | 0.0 | 0.00 | 0.64 | 0.00 | 62 | 1013.4 |
| 20260904173036 | 76 | 39 | 0.0 | 1.0 | 0.00 | 0.64 | 0.00 | 67 | 1013.7 |
| 20260904171532 | 75 | 333 | 0.0 | 0.0 | 0.00 | 0.64 | 0.00 | 69 | 1013.8 |